Theta_e
276 276 277 277 277 276 277 276 278 278 277 277 277 277 276 276 273 271 271 273 273 274 277 276 276 278 279 279 280 280 279 282 283 281 280 279 279 283 287 288 288 288 289 289 289 289 290 291 292 293 294 294 294 294 294 294 295 296 296 297 298 300 300 301 301 301 302 302 303 304 305 305 306 306
276 277 276 275 277 276 276 277 276 276 276 276 277 276 276 276 274 273 272 272 275 275 276 277 276 277 278 279 279 279 279 283 283 280 279 279 279 284 285 285 286 287 288 288 287 289 290 291 291 291 291 291 292 293 294 294 294 295 296 298 299 299 299 300 300 300 300 301 302 303 303 304 305 305
276 276 276 275 275 276 276 275 275 276 276 276 276 275 276 276 275 274 273 271 274 275 275 275 277 277 277 278 278 278 278 281 282 279 278 278 281 282 281 283 284 285 286 286 287 288 290 290 290 290 290 290 292 292 292 292 292 293 294 295 296 297 299 298 298 299 299 299 300 301 302 302 304 304
276 274 275 275 275 275 275 275 275 275 275 275 276 275 276 275 275 275 274 273 273 276 275 276 276 276 276 277 276 276 277 279 281 278 277 278 280 278 277 280 282 283 284 285 286 287 287 288 289 289 289 289 290 291 291 291 291 292 293 294 295 295 295 295 296 297 298 298 299 299 300 301 301 302
274 274 274 274 274 275 275 275 275 275 274 274 275 275 275 275 274 274 273 271 272 274 276 276 275 276 275 275 275 275 276 276 276 278 276 276 276 276 276 276 279 281 283 284 285 286 287 288 288 288 287 288 288 289 290 290 290 291 292 292 294 294 294 295 295 296 296 297 298 298 299 299 300 301
275 273 273 273 273 274 274 274 273 274 273 273 273 273 274 273 274 274 273 272 272 271 274 274 274 275 275 274 275 274 274 274 275 275 275 276 275 276 275 275 276 280 282 283 284 285 286 286 287 287 286 287 287 288 289 288 289 290 290 290 290 291 292 293 293 293 294 295 297 298 299 299 299 299
273 273 273 273 273 275 273 273 273 273 273 273 273 272 273 272 272 273 273 272 271 271 272 274 273 273 274 274 274 274 275 275 274 274 274 274 275 276 275 275 276 279 281 283 284 284 284 284 285 286 286 286 286 287 287 287 287 288 289 289 289 289 289 290 291 292 293 295 295 295 296 298 298 299
273 273 273 272 272 272 272 272 272 272 272 272 272 272 272 272 272 272 272 273 272 272 271 272 272 273 273 273 274 274 274 273 273 273 274 274 274 274 275 275 275 277 281 282 282 283 283 283 284 285 285 285 286 286 287 287 287 287 287 287 288 288 288 289 289 290 292 293 294 295 295 296 297 297
273 273 273 272 272 272 271 271 271 272 271 271 271 271 271 272 272 273 273 272 272 271 270 271 272 273 272 273 273 273 272 272 272 273 273 273 273 273 274 275 276 278 280 280 281 281 282 282 283 284 284 285 285 285 286 286 286 286 286 286 286 287 287 288 288 289 290 290 291 292 294 295 296 297
273 273 273 273 272 272 271 271 271 271 271 271 270 270 271 271 271 271 271 272 271 271 271 270 270 271 271 271 272 272 272 271 271 271 272 273 273 273 273 273 275 275 276 275 276 278 279 280 282 283 283 284 285 285 285 285 285 285 284 284 285 285 286 287 288 289 289 289 290 291 292 293 294 294
273 273 273 272 273 272 271 271 270 270 270 269 269 270 270 271 271 271 271 271 271 271 270 270 270 270 271 271 270 271 272 272 271 270 270 270 272 272 272 272 274 275 275 277 279 279 279 281 280 281 283 283 284 284 284 284 284 284 283 284 284 285 286 287 287 288 288 288 288 289 290 291 293 293
273 273 273 273 272 272 272 272 271 271 271 271 270 271 271 271 271 271 270 272 272 271 271 270 270 270 270 270 271 272 271 270 270 271 270 269 270 271 273 273 272 274 274 274 275 277 278 278 279 281 281 281 283 283 283 282 282 282 283 284 284 285 286 287 287 287 287 287 288 288 288 289 290 293
273 272 272 273 272 273 277 278 278 278 278 272 269 270 271 269 271 270 270 271 272 271 271 270 271 270 270 270 270 270 270 269 269 271 271 270 271 272 272 273 274 274 274 274 274 275 276 276 276 276 276 277 279 279 281 281 281 281 283 284 285 285 286 286 286 286 287 287 287 287 288 288 289 290
272 272 272 273 277 277 278 278 279 279 279 279 277 273 272 269 268 268 270 271 272 271 271 270 271 270 270 270 271 271 271 272 272 271 271 271 272 272 272 273 274 276 275 274 274 275 277 276 276 277 276 277 278 277 277 277 279 282 284 284 285 285 285 286 286 286 286 286 287 287 288 288 288 289
271 271 272 271 274 276 277 275 277 278 278 278 278 278 278 277 273 268 270 271 272 271 271 271 271 270 270 270 272 271 272 272 272 272 272 272 272 271 270 269 273 276 275 275 274 274 277 277 276 276 276 277 277 277 277 281 282 283 283 284 284 285 285 285 285 285 286 286 286 287 287 287 287 288
271 271 271 271 272 272 272 272 272 274 276 277 277 277 277 277 277 277 273 272 271 271 270 270 270 270 270 270 272 272 272 272 273 273 273 273 272 271 271 271 271 275 277 275 274 273 276 277 276 275 276 277 277 277 280 282 283 283 284 284 284 284 284 285 285 285 285 286 286 286 287 287 287 288
271 270 271 270 272 271 275 274 270 269 269 274 275 276 276 276 275 275 276 277 274 273 271 270 270 271 271 271 272 273 273 274 273 273 273 273 273 273 272 272 273 275 277 275 273 272 275 276 275 275 276 277 277 277 279 281 282 283 284 284 284 284 284 284 284 284 285 285 285 286 286 286 286 286
271 271 270 270 270 270 269 269 269 269 269 269 269 269 269 269 272 275 276 276 277 276 274 272 271 273 274 272 273 274 275 274 273 273 272 273 273 273 273 274 274 275 276 274 273 272 274 276 275 274 274 276 276 276 279 282 282 283 283 283 284 284 284 284 284 284 284 284 284 285 285 285 285 285
271 271 271 270 269 269 269 269 271 270 270 268 268 267 268 270 272 273 273 273 273 273 274 274 274 274 275 275 275 275 276 275 275 275 274 274 273 273 273 273 274 274 276 276 274 270 272 275 272 272 274 276 276 275 278 281 282 282 283 283 283 283 283 283 283 283 284 284 284 284 284 285 285 285
272 271 270 269 269 268 269 272 275 275 273 270 267 268 270 272 273 273 276 277 278 277 277 276 276 275 276 279 278 278 278 277 276 275 274 273 272 271 270 269 271 271 274 274 272 269 269 272 272 273 275 275 274 275 275 279 281 282 282 282 283 283 282 282 282 282 283 283 283 284 284 284 284 284
270 270 269 269 269 269 268 272 275 276 276 273 272 272 272 273 273 273 274 278 280 280 280 280 280 280 280 280 279 279 279 276 275 272 270 269 269 267 265 266 267 268 271 272 272 271 270 273 273 271 272 273 274 275 275 276 279 281 281 281 281 281 281 281 282 282 282 283 283 283 283 283 283 283
269 270 273 272 270 269 269 273 275 276 275 273 273 273 273 273 272 273 275 276 277 278 279 278 278 277 277 277 276 275 275 275 274 269 266 267 267 266 266 265 266 268 269 271 274 271 270 272 273 272 273 273 274 275 275 275 276 278 278 279 280 280 280 281 281 282 282 282 282 282 283 283 282 280
269 269 271 273 273 272 272 276 276 277 276 275 275 274 273 272 272 274 275 274 273 273 271 271 270 270 271 269 269 269 272 273 271 269 268 268 267 266 266 266 266 265 267 271 273 267 268 268 270 270 267 266 269 272 273 274 273 273 273 274 274 278 279 280 280 281 281 281 281 282 282 282 282 278
266 268 268 271 275 276 277 277 278 278 278 276 275 275 273 273 272 274 273 273 272 270 269 268 267 266 267 267 267 267 267 268 268 269 269 268 268 266 266 266 265 264 265 269 271 268 269 269 267 269 267 264 264 269 272 272 273 273 273 273 273 276 278 278 278 279 280 280 281 281 281 281 281 277
266 267 268 268 272 275 276 277 277 278 278 278 276 276 274 273 274 276 271 269 271 268 266 264 264 264 264 264 265 265 266 266 267 268 269 268 268 266 265 264 264 264 266 269 273 269 266 267 266 268 268 268 267 267 269 270 272 272 273 273 273 274 274 274 275 274 277 279 280 280 280 281 281 280
267 268 268 268 271 274 276 276 277 278 278 278 277 273 276 278 277 274 269 267 265 262 261 261 261 261 261 262 262 263 264 265 266 267 267 267 267 267 267 266 264 263 264 269 273 269 267 266 268 267 267 267 267 268 267 269 271 272 273 274 274 274 274 274 274 274 274 274 274 276 277 281 281 281
267 268 268 270 273 275 276 277 277 278 278 278 275 276 276 276 276 272 266 264 260 259 259 260 260 261 260 260 261 262 263 264 265 266 266 266 267 267 267 268 268 267 268 269 270 270 268 267 269 268 267 268 267 268 268 267 269 272 272 273 273 274 275 274 274 274 274 274 274 279 279 279 280 281
269 269 270 271 274 276 276 276 277 277 278 276 275 276 275 275 272 265 262 259 258 259 259 259 259 259 260 261 261 262 264 264 265 266 266 266 267 267 267 267 268 268 269 269 269 270 269 268 268 270 269 268 266 266 266 269 270 271 270 273 274 274 275 275 274 274 275 275 274 274 274 274 275 275
271 273 275 275 276 276 276 276 277 277 274 274 274 274 274 272 263 261 258 258 257 257 258 259 259 260 261 262 263 265 265 265 266 265 265 265 265 266 266 266 267 268 268 268 268 269 269 269 268 269 269 269 267 267 267 266 268 268 270 270 270 273 274 275 275 274 274 274 274 274 273 273 274 275
276 276 276 277 277 276 276 275 272 269 270 272 273 273 271 261 260 258 257 257 257 257 258 259 260 261 262 263 264 264 265 263 262 263 263 263 264 264 264 264 265 266 266 267 268 268 269 269 269 268 267 267 268 267 267 267 267 269 270 270 271 273 274 274 274 274 274 273 274 274 274 274 274 275
276 276 276 276 276 276 277 276 275 273 271 265 263 262 261 259 258 258 257 257 257 259 259 259 260 261 262 263 263 262 262 261 262 263 263 263 263 264 264 263 263 264 266 265 267 268 268 268 268 268 266 267 267 267 268 268 267 268 269 270 270 268 271 274 274 274 274 274 274 275 275 275 275 276
274 273 274 275 272 269 267 266 262 260 259 260 261 259 258 258 259 263 266 266 259 259 259 259 260 260 260 260 260 261 261 261 262 263 262 263 263 264 264 262 262 263 264 265 265 266 268 268 268 268 268 267 266 267 267 267 266 267 268 270 271 272 273 272 273 273 274 275 274 274 274 275 275 275
270 269 268 267 267 266 266 265 263 261 259 258 257 256 255 255 256 255 255 255 258 258 257 258 258 259 259 259 260 260 260 261 261 262 262 263 262 263 263 262 262 262 262 263 264 265 265 266 267 268 268 268 268 268 266 265 267 268 268 269 270 271 272 273 273 274 275 274 273 274 274 275 275 275
270 268 267 267 267 267 266 265 264 262 259 258 257 256 261 259 256 256 256 256 257 257 258 258 258 258 259 259 259 260 260 261 262 263 265 262 262 261 261 261 262 262 263 262 263 263 264 265 266 266 267 267 268 268 267 266 266 267 269 270 271 271 273 274 274 275 275 274 273 272 273 273 275 276
271 269 268 267 267 266 266 264 264 262 259 258 257 257 256 255 257 259 257 256 257 257 257 258 257 258 258 259 259 260 261 261 262 262 262 261 261 261 262 261 262 262 262 262 262 263 264 264 264 264 265 265 265 266 271 270 267 268 269 269 270 270 270 271 272 272 272 272 273 272 272 273 274 276
270 270 268 267 266 266 264 264 263 261 259 258 258 256 255 257 256 258 257 258 257 256 256 256 258 257 258 259 259 260 260 261 261 261 261 261 261 261 262 262 262 262 262 262 262 263 263 263 263 263 262 262 262 262 263 270 271 269 267 267 268 268 269 270 271 271 271 271 272 272 272 272 273 275
271 269 268 267 266 265 264 263 262 260 258 258 258 257 257 258 258 258 258 261 258 257 257 257 257 258 258 259 260 260 260 260 259 260 260 260 260 261 260 261 262 262 261 262 263 263 263 263 263 263 262 261 261 260 262 266 269 272 269 267 268 269 269 270 270 270 271 272 272 273 273 274 274 276
271 269 267 266 266 265 264 263 261 260 259 258 258 258 258 258 258 258 257 256 257 256 257 256 257 258 258 258 258 258 259 259 260 260 261 260 260 260 260 261 262 262 262 262 262 262 263 263 263 263 263 261 260 261 261 264 265 268 272 270 269 269 271 270 270 270 272 274 274 275 276 275 275 276
270 269 268 267 266 264 263 262 261 261 260 259 259 259 258 257 256 256 257 256 257 255 255 255 255 257 258 257 258 258 258 259 259 260 260 260 259 259 260 261 262 262 261 261 261 262 262 261 262 263 263 262 261 262 263 263 264 267 270 274 272 270 271 271 271 272 272 273 274 275 275 277 279 281
268 267 267 266 265 264 263 262 261 261 260 260 260 259 257 257 256 255 254 256 255 255 255 256 257 258 257 257 257 257 257 258 259 260 260 260 260 260 261 262 262 261 260 260 260 261 261 261 262 263 264 265 265 266 266 266 267 269 269 271 274 272 271 272 271 271 272 273 273 273 273 275 276 278
266 265 265 264 263 262 262 261 261 260 260 259 259 260 259 256 255 255 253 254 256 255 255 254 254 254 255 256 256 256 257 258 258 259 260 260 260 261 262 263 262 261 260 260 260 260 261 262 264 268 266 266 266 267 266 265 264 265 266 268 272 274 275 275 273 273 272 273 273 272 272 273 274 274
266 265 265 263 262 262 261 261 260 259 259 258 258 257 256 256 256 259 259 260 256 255 254 255 254 255 255 255 255 257 257 257 258 258 259 259 259 260 262 262 261 261 260 259 260 260 262 264 265 265 264 265 265 264 262 263 263 264 265 267 269 272 274 275 276 275 274 273 272 271 272 273 274 273
264 264 264 262 262 261 260 260 260 259 259 258 257 257 255 255 253 255 254 254 254 253 253 253 254 254 254 254 255 256 256 257 257 257 258 259 260 260 260 260 261 260 260 261 261 262 262 263 263 263 264 264 265 265 262 263 264 265 266 266 267 268 270 274 274 274 275 275 275 275 274 273 272 270
263 262 262 261 261 260 259 259 259 258 258 258 257 255 255 254 254 254 253 253 253 253 252 253 253 254 254 254 255 255 255 256 257 257 258 260 260 260 260 261 261 260 260 261 261 261 261 262 262 263 263 263 264 263 263 263 264 265 265 266 266 267 268 269 269 270 271 272 274 275 277 277 278 278
262 261 261 260 260 259 258 257 257 257 257 256 256 255 255 254 254 254 253 253 252 253 253 253 253 253 253 253 254 254 255 258 258 258 259 259 259 259 260 260 260 260 260 260 260 260 261 261 262 264 264 264 264 263 264 264 263 264 265 264 264 266 266 266 265 264 265 267 271 274 276 277 277 277
Wind_Speed
2 2 1 0 1 2 1 2 3 3 3 3 1 0 0 0 2 4 5 6 2 4 1 2 4 4 6 8 7 7 7 9 12 6 6 6 6 13 21 21 20 20 21 22 22 22 22 23 22 22 23 24 25 26 26 27 27 27 27 26 27 27 27 26 25 25 25 26 26 26 25 25 25 25
2 1 1 1 1 0 1 1 2 2 2 2 3 1 1 0 1 2 4 8 2 6 2 1 4 5 8 6 8 8 9 10 10 7 8 8 8 19 20 20 20 21 22 22 22 22 22 21 22 23 25 25 25 25 25 26 26 26 27 27 27 26 26 25 25 25 25 26 26 26 26 26 25 25
2 1 1 0 1 0 0 1 2 2 3 3 2 2 2 3 0 2 3 5 5 3 4 2 4 8 7 6 6 7 7 8 10 9 8 8 15 20 13 18 20 21 22 22 22 22 22 22 23 23 23 23 24 25 25 25 25 26 27 27 27 27 27 26 26 26 26 26 26 25 26 26 26 26
2 2 1 0 0 1 0 1 1 1 2 1 2 2 1 2 1 0 2 5 12 8 5 8 7 6 7 8 8 7 6 8 11 7 9 11 15 9 8 14 20 21 21 21 21 22 23 23 23 22 23 23 24 24 24 25 24 25 25 25 26 26 26 26 26 26 26 26 26 25 25 26 26 26
2 2 1 1 1 0 0 0 1 1 1 1 2 1 1 1 1 1 2 5 10 13 4 3 5 6 5 9 5 8 7 9 10 9 8 8 9 9 9 9 15 19 21 21 22 22 21 22 22 22 23 23 23 23 23 23 24 25 25 26 27 27 27 26 26 26 26 27 26 25 25 25 26 26
1 1 1 1 1 0 0 0 1 0 1 1 1 1 1 1 2 2 2 4 6 13 14 8 3 6 4 7 5 7 11 10 10 12 10 8 8 9 8 9 9 18 20 22 22 21 21 21 22 22 22 23 22 22 23 23 24 26 27 27 27 27 27 27 27 27 26 26 26 26 26 25 25 25
1 1 0 1 1 0 1 1 1 0 1 1 0 1 1 2 2 2 2 4 7 9 13 11 8 6 8 6 8 8 8 10 8 10 11 10 10 7 8 8 7 14 20 22 21 22 22 22 22 22 22 22 22 22 23 23 25 25 26 26 26 26 26 27 27 27 26 26 26 26 26 25 25 24
1 1 1 2 1 1 1 2 1 1 0 1 1 2 2 1 3 3 3 3 5 8 10 14 8 8 9 10 6 7 8 8 10 9 11 10 10 10 8 7 8 11 20 21 21 21 21 22 22 22 21 21 22 23 24 25 26 26 26 26 26 26 26 26 26 26 26 26 25 25 26 26 25 24
2 1 2 2 1 1 2 2 2 2 2 2 2 2 2 2 2 2 2 4 3 7 10 13 10 7 8 8 8 5 8 10 9 9 10 10 10 11 8 7 8 14 19 18 19 19 20 21 21 21 21 22 22 24 25 26 26 26 26 25 25 26 26 26 26 25 25 25 25 25 25 26 25 25
2 2 2 2 1 1 2 4 3 2 3 2 2 2 2 2 2 3 3 3 4 6 9 9 13 10 8 11 7 4 7 10 12 12 11 10 9 9 11 9 7 7 7 7 8 11 14 16 21 21 21 22 24 25 26 26 27 26 25 25 25 26 26 25 25 26 26 25 25 25 25 25 26 26
2 2 1 1 1 2 2 3 4 3 3 2 3 3 3 3 3 3 4 3 5 6 8 9 8 10 8 5 11 8 5 8 8 10 13 13 9 8 9 12 9 7 9 10 15 14 15 18 15 18 22 23 24 25 25 26 26 25 25 26 26 25 25 25 25 26 26 26 25 25 25 25 26 26
1 1 1 1 2 2 3 3 4 3 4 3 4 4 3 3 3 4 4 5 6 7 9 9 11 9 9 9 7 7 7 8 8 5 8 13 15 13 11 10 12 11 9 10 8 9 11 11 14 16 17 20 23 26 24 24 24 25 26 25 25 25 26 26 26 25 25 25 25 25 25 26 26 26
1 1 1 2 2 3 6 8 7 6 6 4 4 4 3 4 4 4 3 4 7 7 8 11 10 12 12 11 12 11 8 8 11 11 9 12 12 12 13 13 9 8 10 9 8 8 8 10 9 9 9 9 15 16 20 18 21 22 23 24 25 26 26 25 26 25 25 25 25 25 25 25 25 25
1 1 2 3 6 8 8 8 9 9 10 10 6 3 3 3 4 4 4 5 5 6 7 6 9 11 13 12 12 13 13 10 10 11 11 13 15 14 13 13 7 7 8 9 11 11 9 10 12 9 10 9 10 10 10 10 15 20 25 25 25 26 25 26 26 25 25 25 25 24 24 25 25 25
3 3 3 3 4 5 5 4 8 10 10 10 10 11 11 8 5 4 5 5 5 6 7 6 5 8 13 13 12 12 13 11 11 9 10 12 13 11 13 16 11 4 5 13 14 14 9 11 13 9 9 10 9 9 9 19 24 25 25 25 25 26 26 25 25 25 25 25 25 25 24 23 23 24
3 3 3 3 2 2 3 4 4 5 7 9 10 11 11 10 10 9 5 5 5 5 7 9 9 10 12 13 10 11 12 12 12 11 12 12 11 16 14 10 14 9 9 14 17 19 11 9 10 11 10 8 8 10 17 25 26 27 26 25 26 25 25 25 25 25 25 24 24 24 24 23 23 24
3 3 4 3 3 2 6 4 2 2 3 6 10 11 11 9 9 10 13 13 9 7 9 10 12 9 10 12 10 8 10 13 14 14 12 12 14 13 15 16 10 12 12 15 17 18 14 8 10 9 8 8 8 9 14 23 26 26 26 26 26 25 24 24 24 24 24 24 25 25 26 26 26 25
4 4 4 3 4 3 2 3 3 3 4 5 4 5 4 4 6 10 13 15 17 15 11 11 12 12 10 12 13 13 12 14 15 15 13 12 12 14 14 17 18 16 11 14 15 18 14 7 7 9 9 9 9 8 14 25 26 26 26 26 25 24 23 23 23 23 24 25 26 26 26 26 26 26
5 5 5 3 4 3 3 4 4 4 5 5 5 5 5 6 7 7 8 9 9 10 10 12 13 13 12 13 14 13 11 12 12 12 12 13 15 17 17 16 13 13 7 10 11 14 14 8 10 9 10 8 8 7 14 24 26 25 24 23 23 23 23 23 25 26 27 27 26 26 25 25 25 25
5 4 4 4 4 4 4 7 12 10 6 5 5 6 7 7 8 7 10 15 15 12 10 9 9 8 10 15 14 15 15 14 14 14 13 11 11 12 11 12 11 12 10 12 13 14 15 8 10 11 8 9 10 10 10 17 23 22 22 22 21 22 25 28 28 27 28 28 27 26 26 25 26 25
4 4 4 4 5 5 5 9 12 13 11 5 7 8 9 8 8 8 8 13 17 16 16 18 21 23 23 22 23 24 25 18 15 12 11 9 10 12 14 14 11 11 10 10 11 13 14 8 8 11 8 9 9 9 9 8 13 21 22 21 24 28 29 29 29 28 27 26 26 26 26 26 25 27
6 5 11 9 6 7 6 11 13 13 10 7 8 9 9 9 9 8 7 5 5 11 15 16 16 18 20 21 21 19 19 19 15 9 10 11 10 10 9 13 12 13 11 10 10 12 10 10 8 12 10 10 7 8 9 12 12 17 19 27 29 28 27 27 28 27 26 25 25 25 26 26 25 17
5 5 7 13 11 9 9 14 14 14 12 8 8 7 8 10 10 6 3 6 8 4 5 6 7 8 10 9 8 10 17 16 13 8 9 8 8 9 10 11 12 12 8 8 13 14 13 14 12 12 14 14 8 8 9 8 11 12 11 12 14 22 25 25 25 26 26 25 25 24 25 25 23 12
5 6 6 9 14 16 16 15 16 15 15 10 6 6 8 8 7 3 6 3 4 5 6 7 7 8 7 7 7 6 7 7 7 10 9 9 9 9 10 11 10 11 12 11 14 13 10 9 13 12 13 15 13 5 7 10 9 10 9 10 10 17 22 22 19 24 25 24 25 25 25 24 22 12
7 6 7 6 11 15 15 15 16 15 14 13 9 8 5 4 7 11 3 3 6 5 5 5 6 6 5 5 4 5 5 5 6 7 9 8 8 9 9 10 10 11 11 12 20 12 12 10 13 9 9 9 12 13 6 9 9 9 9 9 10 11 10 10 9 11 16 23 24 25 23 23 24 18
7 7 6 5 9 15 16 15 15 15 14 16 6 1 8 13 15 9 3 3 3 3 4 5 5 5 5 5 5 5 5 5 6 6 6 7 8 8 8 9 11 11 11 11 21 13 11 9 9 12 9 11 11 10 15 11 11 10 9 9 10 11 11 11 10 11 11 10 11 12 18 25 24 24
8 5 6 7 13 15 15 15 15 15 17 13 4 8 10 12 15 6 3 4 4 3 4 4 5 6 5 5 6 6 6 5 6 7 7 8 8 8 9 10 10 12 13 12 11 11 11 11 10 12 15 13 15 12 10 14 11 9 10 10 12 12 10 10 11 11 10 10 11 20 21 21 22 23
7 6 7 8 14 15 15 16 16 17 15 4 5 9 12 13 5 3 3 1 1 4 4 5 5 6 5 4 5 5 6 6 7 9 9 9 9 9 9 11 11 10 12 11 11 10 10 10 10 11 13 13 16 16 16 13 13 13 15 12 10 10 9 9 10 11 10 10 10 9 9 10 10 10
7 9 13 15 15 15 15 16 18 11 3 5 6 8 11 6 2 1 0 2 1 4 5 5 6 6 5 5 6 7 7 8 7 7 8 8 8 8 9 10 10 10 9 9 9 9 9 10 11 11 11 10 12 14 14 15 15 16 15 16 12 7 9 10 10 10 10 10 10 10 10 10 11 10
16 16 16 18 17 16 14 9 2 3 4 3 5 7 6 1 1 1 2 2 3 4 5 5 6 7 6 6 7 7 7 6 7 7 8 8 9 8 8 10 10 7 7 7 8 9 9 10 10 11 11 10 10 12 12 13 12 11 10 12 13 13 10 8 9 10 11 11 11 10 10 9 11 10
11 12 13 10 13 11 16 14 8 5 3 1 1 1 1 2 2 4 2 4 4 5 5 6 6 6 6 6 6 7 6 7 6 5 7 7 8 8 8 9 11 12 9 4 5 8 8 9 10 12 11 11 11 10 10 9 10 11 9 10 8 11 11 11 11 11 10 11 10 10 10 10 10 10
7 5 6 10 5 3 2 1 2 0 1 2 3 2 3 3 5 5 6 6 3 3 4 4 5 5 5 6 6 7 7 7 6 5 5 6 9 8 8 9 10 10 12 11 8 6 8 8 9 9 11 11 13 12 10 9 9 10 11 10 10 10 10 11 12 12 11 11 10 10 10 10 11 11
2 3 6 5 6 6 7 6 6 4 2 2 3 3 3 4 4 3 2 4 5 5 4 5 5 6 5 7 6 6 7 7 6 4 5 5 6 8 7 8 9 10 11 13 12 11 8 8 8 10 10 10 11 13 12 12 9 8 10 12 11 12 11 10 10 12 13 11 11 10 10 10 10 11
7 7 7 7 7 8 7 7 7 6 5 5 4 5 5 5 4 4 4 4 5 4 4 4 4 5 5 7 7 6 7 8 6 6 7 7 6 7 8 9 10 9 9 10 11 10 11 10 10 9 8 9 9 10 11 10 11 9 9 9 10 11 11 10 9 10 10 10 12 13 10 9 11 11
10 8 8 9 8 8 8 8 7 6 6 6 6 6 5 4 5 5 4 4 4 5 4 4 4 4 4 6 6 7 7 8 8 7 5 4 6 7 8 9 10 10 10 10 11 10 9 11 11 13 11 9 9 5 9 8 7 10 10 10 9 11 11 11 11 11 11 11 9 11 13 12 12 12
10 9 9 9 9 8 8 8 6 6 6 6 6 6 4 6 4 6 6 4 4 4 4 4 5 4 5 5 6 6 7 8 7 7 7 6 7 8 7 8 9 10 9 9 10 9 8 9 10 12 12 12 10 12 8 5 11 10 11 11 11 11 11 12 12 12 11 11 10 10 11 13 14 14
10 9 9 9 7 7 9 7 7 7 6 6 6 6 6 6 6 5 5 3 3 4 5 4 4 4 4 5 7 7 7 7 7 7 7 7 7 7 8 9 10 9 9 8 8 10 9 9 9 9 11 13 12 12 14 11 15 14 9 11 12 12 13 12 12 13 11 10 11 10 11 12 13 15
9 6 6 7 7 7 7 6 6 6 6 6 6 6 6 6 5 4 3 3 5 4 4 4 4 4 5 6 6 6 6 6 6 7 7 7 7 8 8 10 10 8 8 10 9 9 8 8 9 10 9 11 10 12 16 14 13 12 11 11 11 13 12 12 12 11 12 10 9 10 10 12 13 13
7 7 7 7 7 7 7 7 6 6 5 6 6 6 6 6 5 4 4 4 5 5 4 4 4 4 5 5 5 5 6 7 7 7 7 7 6 8 10 10 9 7 8 11 10 9 8 8 9 9 10 11 11 13 13 14 13 15 17 21 13 11 11 10 11 12 12 12 10 9 10 12 15 21
7 5 6 6 7 6 6 5 5 5 5 6 6 6 6 6 6 6 5 6 5 4 5 5 4 4 4 4 6 5 6 6 7 7 7 7 7 8 9 9 8 8 9 10 11 11 9 9 9 10 11 11 12 12 13 14 13 11 10 13 23 17 13 11 12 12 12 9 10 12 13 13 10 5
6 7 7 6 5 5 6 5 5 5 5 5 6 5 6 6 6 6 5 5 6 6 5 5 3 3 5 5 5 5 6 7 6 6 6 6 8 10 12 12 9 7 8 12 11 10 11 10 13 24 21 13 13 12 11 9 10 10 12 12 15 20 22 19 14 11 11 13 12 11 11 11 11 7
7 8 7 5 6 6 5 5 5 5 5 5 6 6 6 5 6 7 6 7 5 4 3 5 4 3 4 5 5 5 5 7 7 7 7 6 8 9 11 9 8 8 9 11 10 12 11 10 13 12 11 11 11 10 11 12 11 11 11 10 10 15 19 21 19 17 13 11 11 10 9 9 9 7
5 6 6 5 5 5 5 5 5 5 5 5 6 6 6 6 5 6 5 5 6 5 5 5 4 4 5 5 5 5 5 7 6 7 7 7 8 8 9 8 8 8 9 10 10 9 10 10 9 10 11 9 9 9 12 13 11 11 10 10 11 11 11 14 16 19 18 19 16 13 9 7 6 6
5 5 5 4 5 5 4 5 5 5 5 5 6 5 6 6 6 6 5 6 6 6 5 4 4 5 5 5 5 5 5 6 6 7 7 7 7 8 9 9 9 8 8 9 9 10 10 9 9 9 10 9 9 10 12 12 11 11 11 10 11 13 12 11 11 11 12 13 15 17 20 19 15 14
6 5 4 4 4 4 4 5 5 4 5 5 5 5 6 6 6 6 5 5 6 6 4 5 4 5 5 4 5 6 6 6 7 6 8 8 8 9 9 9 9 9 9 8 10 11 10 10 10 8 7 8 8 9 11 12 14 13 11 12 13 12 10 11 12 13 12 10 12 20 21 20 18 16
Wind_Direction
113 93 97 164 265 315 322 35 28 7 357 347 335 340 164 185 309 321 309 298 282 289 29 286 291 17 350 340 330 332 329 324 324 332 333 325 325 322 326 327 326 325 324 323 322 319 317 319 319 320 322 323 322 320 317 316 315 314 313 312 312 311 311 309 308 308 308 308 308 307 305 303 301 300
117 98 40 73 356 294 65 47 31 42 30 26 11 345 329 145 234 255 296 294 255 273 285 231 295 330 329 334 327 327 321 320 327 334 330 328 321 323 326 325 325 324 324 323 320 317 318 319 322 323 322 320 318 317 316 315 314 314 314 314 313 311 309 308 308 308 308 307 305 305 304 303 300 299
131 122 89 49 347 344 10 31 44 24 30 4 6 353 30 345 215 244 259 295 279 142 299 270 297 304 314 322 320 315 314 323 332 331 326 322 320 323 322 323 323 323 322 321 320 320 321 322 321 320 319 319 319 319 318 316 316 315 315 313 312 311 309 310 309 308 307 306 304 302 302 302 301 299
126 122 89 316 258 306 62 54 53 35 353 15 356 343 345 309 285 214 233 254 277 280 277 292 289 300 312 319 320 313 319 320 329 326 325 319 320 319 315 318 320 320 319 318 319 321 321 321 321 322 321 321 319 318 318 317 317 315 314 314 314 312 309 307 307 307 306 303 302 302 301 300 299 298
113 115 108 311 301 238 95 109 72 45 353 354 346 332 43 7 331 353 280 278 287 294 256 256 297 306 324 313 333 320 328 325 324 324 319 316 317 315 315 313 313 315 315 317 318 318 320 322 322 322 322 321 320 319 318 320 322 323 322 320 317 316 314 313 313 313 312 309 303 299 297 296 297 297
119 126 114 324 305 360 124 118 22 78 7 1 16 336 80 332 302 299 289 276 279 289 306 306 302 308 314 302 336 331 329 325 322 319 319 316 311 311 310 308 306 311 315 315 316 319 321 320 320 321 321 321 321 321 322 324 323 321 319 317 315 314 313 312 310 307 305 306 307 305 302 298 296 296
160 106 134 263 276 271 7 330 323 13 331 25 61 307 308 315 290 285 272 292 291 294 294 301 314 321 319 317 322 332 321 313 313 312 314 313 310 302 300 300 297 308 312 313 317 318 318 318 318 319 319 319 320 321 321 321 319 317 316 315 314 313 312 312 310 307 304 302 301 302 303 302 299 297
173 195 202 265 260 294 346 311 325 314 341 309 308 311 300 298 295 289 279 266 279 295 297 301 316 320 321 317 330 321 311 312 316 314 306 303 299 301 298 295 300 305 309 314 316 315 315 315 316 317 316 317 318 318 318 318 316 315 314 313 313 313 312 311 312 311 307 303 301 300 299 299 298 296
195 208 216 239 246 292 310 310 313 295 309 292 309 300 294 304 300 317 308 296 291 293 292 297 302 317 308 305 312 325 323 320 313 310 305 306 305 303 301 298 296 300 307 308 309 309 310 312 313 313 314 316 317 318 317 315 314 313 313 312 311 311 311 310 310 311 311 307 304 300 297 298 300 301
213 213 227 247 244 272 272 275 275 277 276 283 284 287 286 285 298 298 296 290 291 285 286 293 304 313 321 315 311 348 330 320 317 316 310 304 304 307 310 303 300 298 298 302 294 297 299 299 307 311 312 314 315 316 314 313 311 311 311 309 308 309 309 308 309 310 310 310 308 305 300 298 297 297
218 214 220 238 255 255 255 259 258 260 271 264 260 247 253 264 280 284 281 284 286 286 291 294 287 297 305 302 308 325 318 301 300 306 314 311 309 304 303 307 305 301 297 290 293 293 298 302 304 305 308 310 312 311 310 309 309 308 307 306 306 306 306 307 308 309 309 307 305 305 303 300 296 292
211 223 230 239 246 242 248 245 256 247 257 251 254 249 245 249 260 269 274 289 294 295 298 298 307 306 305 308 286 291 308 308 299 287 306 307 313 313 307 296 303 305 296 298 293 286 288 284 287 293 297 301 304 307 306 303 303 304 304 305 305 305 307 308 308 307 307 307 305 303 302 302 303 303
255 264 256 254 254 250 256 265 269 254 243 218 231 251 225 240 244 263 257 265 293 285 291 298 303 304 307 310 316 318 323 322 308 308 304 293 292 296 299 298 291 289 294 293 288 292 292 296 292 293 291 290 294 294 295 296 296 293 300 303 305 307 308 308 307 306 306 306 305 303 301 299 298 298
246 240 245 258 271 280 282 282 284 286 285 284 278 255 219 233 241 244 254 267 274 280 289 284 297 302 302 309 312 309 307 298 292 292 293 293 296 299 292 289 289 293 283 292 299 295 298 295 294 291 291 292 292 291 292 287 292 299 305 307 307 307 308 308 308 307 306 305 304 302 302 301 300 299
243 249 244 242 261 270 279 280 278 281 283 283 284 288 290 287 274 268 277 277 276 285 285 289 287 294 300 301 303 298 294 284 287 278 283 288 294 290 301 304 310 154 306 313 304 299 301 296 296 296 293 294 289 289 284 292 303 307 308 306 307 309 310 308 307 307 306 305 305 304 301 299 298 297
226 234 236 244 234 241 250 253 252 273 283 284 284 287 287 284 287 290 288 296 303 296 295 293 286 291 287 284 285 287 281 280 285 284 287 285 289 295 289 288 298 315 334 314 309 300 301 295 291 295 292 289 291 288 297 304 307 306 305 307 308 309 308 307 307 307 307 306 305 303 304 305 306 305
227 230 236 245 247 239 273 286 304 269 271 287 286 284 285 290 290 289 287 284 282 287 281 276 279 266 270 276 274 266 278 288 289 291 288 287 284 282 285 292 298 311 334 315 300 295 302 298 290 290 300 295 287 289 297 301 303 305 306 307 308 308 308 308 308 308 308 308 308 307 306 304 303 301
227 226 225 236 259 253 257 267 270 278 265 260 261 260 251 245 253 267 276 279 275 270 265 264 268 269 258 270 278 281 280 288 291 294 290 292 286 288 292 305 307 309 314 301 298 289 296 299 306 302 295 286 283 285 296 303 305 305 305 306 307 309 311 311 309 309 310 310 309 307 306 304 301 299
225 226 224 224 234 241 249 240 256 249 252 248 248 251 250 241 243 242 239 246 248 251 251 255 262 270 273 273 279 283 283 276 282 291 297 306 308 305 304 295 292 297 297 295 304 293 305 335 306 289 286 288 291 297 297 299 301 303 305 307 308 311 313 315 314 312 309 308 308 307 307 306 304 300
219 216 216 222 237 241 247 252 266 267 256 242 242 248 250 251 252 247 243 254 260 266 260 249 241 242 271 288 296 307 311 318 320 315 311 307 296 301 305 305 323 314 324 328 318 300 295 307 287 303 310 304 292 288 283 289 298 304 307 307 310 316 317 314 311 309 307 305 305 306 307 308 308 306
216 216 220 228 235 239 241 250 259 262 264 261 257 257 260 259 260 259 252 260 272 283 291 296 301 305 309 311 311 312 315 316 318 318 316 317 331 318 311 307 310 308 315 307 287 281 289 316 320 300 287 280 290 290 286 286 299 306 308 314 316 314 310 308 306 306 305 304 304 306 307 308 308 307
227 226 237 234 225 231 235 246 255 255 256 254 253 257 263 268 266 271 274 278 278 294 299 307 313 314 312 313 316 318 318 321 329 334 318 318 316 304 304 307 311 311 311 304 307 302 304 322 320 312 312 306 293 302 314 309 307 313 315 310 307 307 306 304 304 304 306 307 306 306 306 307 308 309
214 230 235 242 240 234 232 246 248 248 247 245 245 252 263 270 272 273 309 297 295 311 333 321 327 318 321 322 320 317 322 328 332 323 309 311 310 308 310 310 312 306 303 310 333 314 313 316 317 324 319 307 299 290 289 309 314 301 295 299 301 303 305 305 305 305 306 306 306 306 306 307 309 306
232 221 225 234 243 246 248 249 249 249 250 247 245 249 256 266 278 300 280 294 342 338 335 320 324 313 314 313 314 314 317 324 327 326 321 319 318 316 318 317 313 304 304 313 322 307 307 317 314 321 304 303 310 326 307 288 283 288 294 293 288 300 305 304 302 302 303 304 305 305 306 306 308 304
219 220 219 205 232 246 248 250 249 248 249 251 253 251 248 247 274 294 330 15 356 339 330 321 313 305 307 306 307 308 312 316 315 317 320 317 317 313 310 306 300 294 296 303 314 312 307 312 297 295 286 279 285 294 290 291 286 284 287 284 288 292 295 292 292 294 298 300 301 303 304 304 304 303
223 218 208 209 230 241 245 244 245 246 250 253 249 237 271 290 302 309 68 1 17 345 318 309 302 304 310 310 308 305 306 302 299 298 294 299 295 288 283 286 293 294 295 301 307 301 298 294 300 299 288 290 289 287 297 292 289 283 282 281 282 288 290 294 294 293 293 293 294 297 300 304 305 304
223 208 214 218 230 238 239 242 245 250 251 257 263 279 301 302 296 324 46 22 354 327 304 298 296 299 301 303 303 306 305 301 299 299 296 290 286 280 275 276 276 279 286 292 290 288 289 289 293 295 300 297 295 297 284 298 300 295 286 289 291 287 288 286 288 289 289 290 290 295 300 298 298 299
216 214 214 216 229 233 237 245 249 246 253 247 272 300 298 294 316 67 8 33 310 297 300 296 294 291 288 283 292 298 299 300 304 302 299 293 288 284 282 278 276 273 280 285 289 289 291 290 292 290 295 301 303 306 308 305 301 307 308 301 290 289 286 284 285 286 286 286 287 290 294 295 293 295
214 221 224 227 230 235 242 241 245 252 247 273 296 299 291 302 88 342 83 267 286 302 290 285 282 283 280 281 283 289 297 298 300 297 294 288 281 275 272 274 274 276 279 284 287 290 293 297 299 300 298 300 302 303 305 307 309 306 309 310 303 298 295 292 287 286 289 290 286 287 283 286 290 288
226 230 234 238 239 239 241 243 172 132 214 237 284 296 299 69 262 213 234 269 273 269 273 271 277 281 293 295 293 293 296 297 295 296 297 302 301 302 302 302 296 282 260 262 275 287 294 299 301 303 299 295 294 297 299 300 297 294 296 295 298 298 282 282 287 289 289 288 286 284 281 276 277 280
239 238 238 239 242 241 242 238 220 180 132 60 6 317 265 251 229 232 213 230 247 260 259 269 274 282 288 294 302 301 299 293 287 284 286 290 296 305 304 304 302 308 302 275 270 286 295 299 299 305 300 299 295 290 294 293 291 295 293 289 288 289 298 294 289 286 282 281 282 283 280 279 276 268
238 239 245 247 261 296 343 54 41 38 111 161 211 221 229 234 238 236 253 266 242 249 246 266 285 294 298 295 292 296 294 286 284 279 283 294 299 302 307 305 304 308 308 311 301 285 290 290 293 296 296 298 298 297 288 277 279 287 290 291 287 281 284 290 292 289 286 287 287 284 284 282 280 280
226 215 227 223 236 231 234 244 245 250 276 259 218 234 242 244 243 249 219 240 257 253 265 271 274 281 289 290 291 290 292 288 288 289 291 290 292 301 297 293 297 305 310 312 317 316 310 297 289 296 293 290 284 286 291 294 285 282 285 291 291 289 289 286 284 291 300 299 290 289 285 277 270 271
223 219 217 219 217 223 219 227 227 232 229 246 260 246 232 223 228 232 232 234 250 253 251 255 270 278 284 289 291 290 288 294 297 299 310 303 302 303 306 302 300 299 299 302 308 311 314 312 310 302 288 280 271 269 272 275 285 287 288 294 299 300 303 309 312 311 306 300 302 299 287 277 277 271
229 218 217 221 214 216 216 219 218 213 217 229 234 247 236 225 226 240 238 241 237 246 255 261 257 266 272 277 283 287 293 297 302 306 300 292 298 295 299 300 301 304 306 308 311 315 316 317 321 318 315 309 305 259 228 260 292 305 305 302 302 307 309 308 304 301 297 294 289 282 285 287 283 281
227 221 221 218 213 205 212 219 209 208 211 219 221 229 240 244 220 216 235 230 216 239 248 258 268 264 263 265 276 284 288 293 297 300 303 307 305 302 297 294 295 296 300 302 306 311 315 314 322 322 321 324 324 321 315 328 312 305 307 304 303 299 297 297 295 292 290 288 283 282 286 289 290 290
230 214 217 218 209 199 211 210 204 211 208 212 220 215 221 240 233 211 222 238 244 244 239 242 252 262 272 277 282 282 285 291 292 297 298 300 299 298 301 298 296 292 298 303 309 313 318 317 319 319 321 322 322 317 308 318 312 307 285 294 297 296 295 295 295 292 286 279 279 279 279 282 284 286
241 215 200 217 212 207 211 204 199 207 209 210 217 224 227 230 240 235 212 217 238 241 253 257 265 272 273 272 279 284 286 281 280 288 293 301 305 307 302 298 296 299 307 310 312 311 314 312 315 319 319 314 311 314 315 318 314 309 301 294 292 294 293 292 290 290 295 292 280 283 289 287 283 282
241 239 230 225 219 204 208 205 195 211 207 213 213 219 227 231 231 240 233 231 233 238 245 250 255 257 264 268 267 278 290 296 297 293 299 299 301 301 302 297 293 302 317 312 312 310 314 315 317 318 317 313 310 309 305 304 302 301 301 301 300 299 302 301 302 304 302 302 305 303 288 279 274 271
244 231 235 230 227 206 206 189 195 203 209 214 217 216 212 228 226 227 237 236 236 241 236 244 254 262 264 271 280 283 278 272 278 289 295 298 300 299 294 295 301 314 311 308 311 312 314 314 318 319 315 308 297 290 288 283 278 277 291 307 314 311 305 308 308 305 301 309 315 309 307 310 309 299
236 239 235 216 218 204 207 199 199 191 209 213 214 217 212 213 225 234 226 235 234 243 246 241 240 259 268 273 271 273 284 287 283 283 287 291 297 299 300 306 302 303 306 306 307 306 307 310 309 313 310 298 292 289 288 295 305 308 307 305 308 317 319 315 303 307 320 319 310 301 304 311 308 302
231 234 231 203 211 210 205 207 191 195 209 207 209 213 217 214 217 239 244 257 257 247 254 267 268 262 266 265 273 280 279 285 290 289 289 292 293 293 296 300 298 303 305 305 306 303 299 304 308 305 298 303 305 312 313 314 307 307 303 302 305 317 314 311 318 322 316 308 306 303 308 312 317 312
258 243 237 219 212 213 205 208 202 197 210 204 213 214 211 222 228 238 252 251 248 247 247 258 259 257 264 268 266 266 276 285 285 287 287 285 285 294 301 296 293 298 299 295 295 293 302 306 306 306 306 303 307 314 308 308 302 297 302 309 311 316 310 317 323 318 313 306 304 305 310 311 312 314
261 257 256 238 219 216 206 206 207 207 205 210 215 208 213 214 229 232 225 231 236 243 238 244 256 260 265 272 274 274 269 273 281 284 287 289 294 294 293 293 294 296 297 298 301 305 305 303 304 305 305 312 319 316 310 309 306 309 307 309 313 313 317 329 323 319 315 312 317 323 326 325 325 328
277 259 249 232 228 228 218 209 210 206 203 206 208 212 221 219 229 236 233 230 236 241 243 245 254 260 264 271 280 282 274 281 293 299 300 295 290 289 289 290 293 296 299 306 308 306 309 308 306 300 297 304 310 308 311 314 312 310 310 314 313 318 325 329 328 327 327 323 325 331 333 333 332 332